ELECTRON KICK STAGE R/B, 62086

Orbit data source: Space-Track

ELECTRON KICK STAGE R/B, 62086 is space debris in SSO originally from a launch on Mon, 25 Nov 2024 UTC launched from the Rocket Lab Launch Complex (RLLC). Debris objects in space refer to the collection of defunct objects orbiting the Earth. Examples of debris include non-operational satellites, rocket bodies, and fragments generated from explosions, collisions, or faulty payload assembly.

Loading next visibility...
Identifier
62086, 2024-219F
Orbit
SSO
Country
Flag of USUS
Related business
Manufacturer
Rocket Lab
Mission
Spacecraft
Bus & Motor
KICK STAGE, CURIE
Mass
~50 kg wet, ~50 kg dry
Launch date (UTC)
2024-11-25 (1 year ago)
Launch vehicle
Unknown
Launch site
Rocket Lab Launch Complex (RLLC)
Object type
Payload
Rocket body
Debris
Shape & HBR
Trunc Cone, 0.7 m
Radar Cross Section
0.760 m², Medium (>0.1 m² and < 1m²)

Expand to show TLE details & history
Last TLE update: 8 hours ago

TLE from 8 hours ago
0 ELECTRON KICK STAGE R/B
1 62086U 24219F   26126.41271838  .00003638  00000-0  31567-3 0  9996
2 62086  97.9833 303.2504 0052582  92.3825 268.3417 14.96648796 78692
Epoch: 2026-05-06T09:54Z
TLE epoch observation values (Epoch: 2026-05-06T09:54:18.868Z)
Latitude
-0.00003°
Longitude
-69.60179°
Altitude
581.552 km
Speed
7.569 km/s
True Right ascension
20h 13m 00s
True Declination
0° 00' 00"
Sunlit
Object was in daylight at epoch
Visualization orbit readout
Latitude
Unknown
Longitude
Unknown
Altitude
Unknown
Speed
Unknown
Apparent Right ascension
Unknown
Apparent Declination
Unknown
Sunlit
N/A
Visualization observer readout
Local Sidereal Time
01:58:28
Azimuth
Unknown
Elevation
Unknown
Doppler factor
Unknown
Orbital elements
Apogee altitude
610.839 km
Perigee altitude
537.725 km
Semi-major axis
6,952.419 km
Eccentricity
0.00526
Inclination
97.9833°
RAAN
303.2504°
Arg. of periapsis
92.3825°
True anomaly
267.73953°
Mean anomaly
268.3417°
Eccentric anomaly
268.0406°
Mean motion
3.74403 °/min
Orbital period
96.15 mins
BSTAR
0.00031567
Loading maneuver chart data...
Computing Atmospheric mass density...
Loading historical data...
Loading historical data...
Loading historical data...
Loading historical data...
Loading historical data...
Loading historical data...
Loading historical data...

Documentation

Showing up to 5 results
|